Overview Statistics Trail Chart Weather Telemetry Raw packets
 

This is the latest recevied weather packets stored in our database for station/object NT9G. If no packets are shown the sender has not sent any weather packets the latest 10 day(s).

<< 23 24 25 26 27 28 29 >>
Time Temp. Humidity Pressure Rain* Wind** Luminosity Snow
1777700745 5.56° C 66% 1020.4 hPa 0 mm - - -
1777700445 6.11° C 65% 1020.4 hPa 0 mm - - -
1777700144 5.56° C 65% 1020.6 hPa 0 mm - - -
1777699844 6.11° C 65% 1020.4 hPa 0.25 mm - - -
1777699544 6.11° C 66% 1020.4 hPa 0.25 mm - - -
1777699243 6.11° C 67% 1020.6 hPa 0.25 mm - - -
1777698943 6.11° C 68% 1020.3 hPa 0.25 mm - - -
1777698643 6.67° C 69% 1020.3 hPa 0.25 mm - - -
1777698343 6.67° C 71% 1020.1 hPa 0.25 mm - - -
1777698043 7.22° C 70% 1020.1 hPa 0.25 mm - - -
1777697742 7.22° C 71% 1020 hPa 0.25 mm - - -
1777697442 7.78° C 70% 1019.9 hPa 0.25 mm - - -
1777697142 7.78° C 69% 1019.9 hPa 0.25 mm - - -
1777696841 7.78° C 68% 1019.8 hPa 0.25 mm - - -
1777696541 7.78° C 68% 1019.7 hPa 0.25 mm - - -
1777696241 7.78° C 67% 1019.6 hPa 0.25 mm - - -
1777695640 8.33° C 66% 1019.6 hPa 0.25 mm - - -
1777695340 8.33° C 66% 1019.5 hPa 0.25 mm - - -
1777695040 8.33° C 66% 1019.6 hPa 0.25 mm - - -
1777694739 8.33° C 66% 1019.7 hPa 0.25 mm - - -
1777694439 8.33° C 66% 1019.6 hPa 0.25 mm - - -
1777694139 8.33° C 66% 1019.6 hPa 0.25 mm - - -
1777693838 8.33° C 65% 1019.5 hPa 0.25 mm - - -
1777693538 8.33° C 64% 1019.5 hPa 0.25 mm - - -
1777693238 8.33° C 64% 1019.4 hPa 0.25 mm - - -

* Rain since midnight (hover to see other rain measurements)
** Current wind speed in m/s (hover to see current wind gust speed)